Regional Weather Roundup
Issued by NWS Albany, NY

Current Version | Previous Version | Graphics & Text | Print | Product List | Glossary Off
Versions: 1 2 3 4 5 6 7 8 9 10 11 12 13 14 15 16 17 18 19 20 21 22 23 24 25 26 27 28 29 30 31 32 33 34 35 36 37 38 39 40 41 42 43 44 45 46 47 48 49 50

000
ASUS41 KALY 292310
RWRALY

NEW YORK STATE HOURLY WEATHER ROUNDUP
NATIONAL WEATHER SERVICE ALBANY NY
700 PM EDT SUN MAR 29 2015

NOTE: "FAIR" INDICATES FEW OR NO CLOUDS BELOW 12,000 FEET WITH NO
SIGNIFICANT WEATHER AND/OR NO OBSTRUCTIONS TO VISIBILITY.

NYZ032-033-038>043-046>054-057>066-NYZ062>081-300000-
EAST


CITY           SKY/WX    TMP DP  RH WIND       PRES   REMARKS
ALBANY         PTCLDY    40   4  22 W3        30.11F
GLENS FALLS    CLEAR     38  12  34 S13G18    30.07F WCI  30
POUGHKEEPSIE   CLEAR     44   2  17 SW8       30.12S
MONTGOMERY     CLEAR     41   6  23 W9        30.11F
WHITE PLAINS   FAIR      42   2  18 W6        30.13F
ISLIP          PTCLDY    39  14  36 SW7       30.16S WCI  34
NEW YORK CITY  PTCLDY    46   5  18 W8        30.16F
CENTRAL PARK   CLEAR     45   4  18 VRB5      30.18S
$$

NYZ005>009-017-018-044>046-055-056-300000-
CENTRAL


CITY           SKY/WX    TMP DP  RH WIND       PRES   REMARKS
FULTON         CLEAR     37  10  32 SE3       30.02F
SYRACUSE       CLOUDY    38   8  29 SE8       30.03F WCI  32
ROME           CLEAR     37   6  27 CALM      30.08F
ELMIRA         CLEAR     41   8  25 SW9       30.01F
BINGHAMTON     CLEAR     36   7  29 S8        30.02F WCI  30
MONTICELLO       N/A    N/A N/A N/A MISG      30.10F
$$

NYZ026>034-041>043-300000-
NORTH


CITY           SKY/WX    TMP DP  RH WIND       PRES   REMARKS
WATERTOWN      PTCLDY    37  11  34 S7        30.00F WCI  32
FORT DRUM      NOT AVBL
MASSENA        PTCLDY    35  11  36 S20G25    30.01F WCI  24
SARANAC LAKE   CLEAR     32   5  32 SW8       29.96F WCI  25
PLATTSBURGH    CLEAR     36  13  38 S9        30.02F WCI  29
$$

NYZ001>004-010>016-019>021-300000-
WEST


CITY           SKY/WX    TMP DP  RH WIND       PRES   REMARKS
NIAGARA FALLS  CLOUDY    37  19  48 S9        29.93F WCI  30
BUFFALO        CLOUDY    39  18  42 S10       29.94F WCI  32
DUNKIRK        CLOUDY    42  14  32 S15G24    29.94F
JAMESTOWN      CLOUDY    37  10  32 S14G22    29.94F WCI  29
WELLSVILLE     MOCLDY    36   7  29 S8        29.98F WCI  30
ROCHESTER      MOCLDY    42  12  29 S6        29.98F
PENN YAN       CLEAR     41  10  28 S6        30.00F
$$

             KEY
       WCI = WIND CHILL INDEX
       VSB = VISIBILITY
       HX  = HEAT INDEX
$$



USA.gov is the U.S. government's official web portal to all federal, state and local government web resources and services.